Kerry Airport, Ireland

1:46 AM IST on April 24, 2017 (GMT +0100)
Farranfore

Weather History for EIKY - February, 2014

Change the Weather History Date:

Thursday, February 13, 2014

  Actual Average (EINN) Record (EINN)
Temperature  
Mean Temperature 42 °F -  
Max Temperature 46 °F 48 °F 59 °F (1998)
Min Temperature 39 °F 38 °F 33 °F (2001)
Degree Days  
Heating Degree Days 22    
Moisture  
Dew Point 35 °F    
Average Humidity 72    
Maximum Humidity 81    
Minimum Humidity 62    
Precipitation  
Precipitation 0.00 in - - ()
Sea Level Pressure  
Sea Level Pressure 29.25 in    
Wind  
Wind Speed 15 mph ()    
Max Wind Speed 23 mph    
Max Gust Speed -    
Visibility 6.2 miles    
Events Rain    
Averages and records for this station are not official NWS values.
T = Trace of Precipitation, MM = Missing Value Source: Averaged Metar Reports

Daily Weather History Graph

Daily Weather History Graph

Search for Another Location

Airport or City:

Trip Planner

Search our weather history database for the weather conditions in past years. The results will help you decide how hot, cold, wet, or windy it might be!

Date:

Astronomy

Feb. 13, 2014 Rise Set
Actual Time 7:57 AM GMT 5:47 PM GMT
Civil Twilight 7:22 AM GMT 6:23 PM GMT
Nautical Twilight 6:42 AM GMT 7:02 PM GMT
Astronomical Twilight 6:03 AM GMT 7:42 PM GMT
Moon 4:42 PM GMT (2/13) 6:46 AM GMT (2/13)
Length of Visible Light 11h 00m
Length of Day
9h 50m
Waxing Gibbous, 98% of the Moon is Illuminated
Feb 13
Waxing Gibbous
Feb 14
Full
Feb 22
Last Quarter
Mar 1
New
Mar 8
First Quarter

Hourly Weather History & Observations

Time (GMT) Temp. Windchill Dew Point Humidity Pressure Visibility Wind Dir Wind Speed Gust Speed Precip Events Conditions
7:20 AM 39.2 °F 31.6 °F 33.8 °F 81% 29.12 in 6.2 mi WSW 12.7 mph - N/A   Scattered Clouds
8:20 AM 39.2 °F 33.6 °F 33.8 °F 81% 29.15 in 6.2 mi SW 8.1 mph - N/A   Scattered Clouds
11:50 AM 42.8 °F 34.0 °F 33.8 °F 70% 29.21 in 6.2 mi West 20.7 mph - N/A   Partly Cloudy
12:20 PM 44.6 °F 36.1 °F 35.6 °F 71% 29.21 in 6.2 mi West 21.9 mph - N/A Rain Rain Showers
12:50 PM 46.4 °F 38.5 °F 37.4 °F 71% 29.21 in 6.2 mi West 21.9 mph - N/A   Scattered Clouds
1:20 PM 44.6 °F 37.4 °F 35.6 °F 71% 29.24 in 6.2 mi West 16.1 mph - N/A   Scattered Clouds
1:50 PM 44.6 °F 37.4 °F 33.8 °F 66% 29.24 in 6.2 mi West 16.1 mph - N/A   Scattered Clouds
2:20 PM 46.4 °F 38.3 °F 33.8 °F 62% 29.24 in 6.2 mi West 23.0 mph - N/A   Partly Cloudy
2:50 PM 46.4 °F 38.3 °F 33.8 °F 62% 29.24 in 6.2 mi West 23.0 mph - N/A   Mostly Cloudy
3:20 PM 44.6 °F 36.4 °F 33.8 °F 66% 29.24 in 6.2 mi West 20.7 mph - N/A   Mostly Cloudy
3:50 PM 44.6 °F 36.4 °F 33.8 °F 66% 29.27 in 6.2 mi West 20.7 mph - N/A   Mostly Cloudy
4:20 PM 44.6 °F 37.2 °F 35.6 °F 71% 29.27 in 6.2 mi West 17.3 mph - N/A   Scattered Clouds
4:50 PM 44.6 °F 37.2 °F 35.6 °F 71% 29.30 in 6.2 mi West 17.3 mph - N/A   Mostly Cloudy
5:20 PM 42.8 °F 33.8 °F 35.6 °F 76% 29.30 in 6.2 mi WSW 21.9 mph - N/A Rain Heavy Rain Showers
5:50 PM 42.8 °F 35.1 °F 35.6 °F 76% 29.30 in 6.2 mi WSW 16.1 mph - N/A Rain Heavy Rain Showers
6:20 PM 42.8 °F 33.5 °F 35.6 °F 76% 29.30 in 6.2 mi West 23.0 mph - N/A   Scattered Clouds
6:50 PM 41.0 °F 33.1 °F 35.6 °F 81% 29.33 in 6.2 mi WSW 15.0 mph - N/A   Partly Cloudy
7:20 PM 42.8 °F 35.8 °F 35.6 °F 76% 29.33 in 6.2 mi WSW 13.8 mph - N/A   Partly Cloudy
7:50 PM 41.0 °F 33.5 °F 35.6 °F 81% 29.33 in 6.2 mi WSW 13.8 mph - N/A   Partly Cloudy